Wind_Speed
52 50 49 49 48 48 47 46 45 44 43 42 41 40 39 38 38 38 39 39 38 38 37 37 36 35 35 35 34 35 35 35 36 37 37 37 38 38 39 39 41 42 42
51 50 49 48 48 47 47 48 47 45 44 43 42 41 41 40 40 40 40 41 41 40 40 40 39 39 39 38 38 39 39 39 39 40 40 40 39 40 40 40 41 42 43
49 49 49 48 48 48 47 47 47 48 46 45 45 44 43 42 42 42 43 43 43 43 43 43 43 42 42 42 42 42 42 42 42 43 44 44 43 42 41 42 41 42 43
48 48 48 48 47 47 48 49 48 48 48 48 47 47 46 46 45 45 45 45 45 45 45 45 45 45 45 45 45 45 45 45 44 45 45 46 46 46 44 44 44 44 44
47 47 47 48 48 47 46 48 49 49 49 50 49 49 49 48 48 48 48 48 48 47 47 48 48 48 48 48 48 47 47 47 47 47 47 46 46 46 46 45 45 45 45
46 46 46 46 47 47 48 49 49 49 49 50 50 51 51 50 50 51 50 50 49 49 49 49 50 50 50 49 49 49 49 49 48 48 48 47 47 46 46 45 45 45 45
43 44 44 45 46 47 48 50 50 50 51 51 51 51 51 52 51 52 52 51 52 51 51 51 51 51 51 51 51 50 50 49 49 48 48 47 47 46 46 45 45 45 45
40 41 43 44 45 46 48 49 50 51 52 52 52 52 53 53 53 53 53 53 53 52 52 51 51 51 51 51 51 50 50 49 49 48 48 47 46 46 46 46 46 45 45
38 39 40 41 42 44 46 47 49 50 51 51 51 52 52 52 53 53 53 54 53 52 51 50 50 51 51 51 50 49 49 48 48 48 48 47 47 47 47 46 46 46 44
35 37 38 39 41 42 44 45 47 49 50 51 51 51 52 52 52 53 53 53 52 52 51 50 50 50 50 50 49 49 49 49 48 48 48 48 48 48 47 47 46 45 44
31 32 34 36 37 39 42 44 46 46 48 49 49 50 51 52 52 52 51 51 51 51 50 50 50 50 50 50 50 50 50 49 49 49 48 48 47 47 47 46 45 44 43
29 30 31 32 33 34 36 39 41 43 45 46 47 47 48 49 49 49 50 50 50 50 50 51 51 51 51 51 51 51 51 50 50 49 49 48 47 47 46 44 43 43 42
29 29 30 30 31 31 33 34 35 37 39 41 43 44 46 47 47 48 49 50 51 51 51 51 51 52 52 52 52 51 51 50 50 49 48 47 46 45 44 43 42 41 40
27 27 28 28 29 30 31 32 33 35 36 38 39 41 42 43 45 46 47 48 49 50 51 51 51 51 51 51 50 50 49 48 48 47 46 45 45 44 43 42 41 39 37
26 27 27 28 29 29 31 32 33 34 36 37 38 39 40 42 43 44 45 46 46 47 47 48 48 48 48 48 47 47 46 46 45 44 44 43 42 41 40 39 38 36 35
28 28 29 29 30 31 32 32 33 34 35 36 37 38 39 40 42 43 44 44 44 45 45 45 45 45 45 45 45 44 44 43 42 42 41 40 39 38 37 35 34 33 32
29 30 30 30 31 32 32 33 33 34 35 36 37 38 38 39 40 41 42 42 42 42 43 42 42 42 42 42 42 42 41 41 40 39 39 38 37 36 34 33 33 32 31
30 31 31 31 32 32 32 33 34 34 35 35 36 37 37 38 39 40 40 40 41 41 41 41 40 40 40 40 40 39 39 38 37 37 36 35 33 33 32 32 31 31 31
31 31 32 32 32 33 33 34 34 35 35 35 36 36 37 37 38 38 38 38 38 38 39 39 39 38 38 37 37 36 35 35 34 33 32 31 31 30 30 30 30 31 31
31 31 32 32 33 33 33 34 34 35 35 35 35 35 35 35 36 36 36 36 36 36 35 35 35 35 35 35 34 33 32 32 31 30 30 30 29 29 29 30 30 31 31
30 31 31 32 32 32 32 32 33 33 33 33 34 34 34 34 33 33 33 32 32 32 32 32 32 32 32 32 31 31 30 30 30 30 30 30 29 29 30 30 30 31 31
30 30 30 30 30 31 31 32 32 31 31 32 32 32 32 32 32 31 31 30 30 30 29 29 29 29 29 29 29 29 29 29 29 29 29 29 29 30 30 31 31 32 32
30 29 29 29 29 29 30 30 31 31 31 31 31 31 31 31 31 30 29 29 28 28 28 28 28 28 29 29 29 28 28 28 28 28 29 29 29 30 31 32 32 33 33
30 30 30 30 30 30 30 30 30 31 31 31 31 31 31 30 30 29 28 28 28 27 27 27 27 28 28 28 28 28 28 29 29 29 30 30 31 32 33 33 33 34 35
31 31 31 31 31 30 30 30 30 30 30 30 30 29 29 29 29 29 29 29 28 27 27 27 27 28 28 28 29 29 29 30 30 31 31 32 32 33 33 34 34 35 36
31 32 32 31 31 31 31 31 31 30 30 30 29 29 28 28 28 28 28 28 28 28 28 28 28 29 29 29 29 30 31 31 31 31 32 33 33 34 35 35 36 36 37
Wind_Direction
230 232 235 236 238 239 240 243 245 247 248 250 252 254 255 257 258 259 261 263 265 267 269 271 272 274 277 280 282 284 286 289 290 292 293 295 296 298 299 301 302 304 305
232 233 235 237 239 240 241 243 244 246 247 249 251 253 255 256 258 261 262 264 264 266 269 271 273 275 277 280 282 284 286 288 290 291 292 292 294 295 297 299 300 302 303
234 235 236 238 239 241 243 244 245 246 248 250 251 252 254 257 259 261 263 265 266 268 269 271 273 275 278 280 282 284 285 287 289 291 292 293 294 294 296 297 298 299 301
235 236 237 239 241 243 244 245 247 248 248 250 252 253 254 257 259 262 264 267 268 269 269 271 273 275 278 280 282 283 285 286 288 289 291 292 294 295 296 297 298 299 300
237 239 240 241 242 244 245 247 247 249 250 251 252 254 255 258 260 262 265 267 269 270 271 272 273 275 277 279 280 282 283 285 287 288 289 291 292 293 295 296 297 299 300
238 240 242 243 244 245 247 249 250 251 251 253 254 255 257 259 261 262 265 267 268 270 272 273 274 275 277 278 279 281 282 284 285 286 288 289 291 292 294 295 296 297 298
240 241 244 246 247 248 249 250 251 252 253 254 256 257 258 260 262 263 264 266 268 270 271 272 273 274 276 277 279 280 282 283 284 285 287 289 290 291 293 294 295 296 296
243 245 246 248 249 250 251 251 252 253 255 256 257 259 259 261 262 263 265 267 268 270 271 271 272 273 275 277 278 279 281 282 283 285 286 287 289 290 291 293 294 294 295
246 248 249 249 250 252 252 252 253 254 255 256 257 258 259 261 263 264 266 267 268 269 270 271 272 272 274 276 277 279 280 281 283 284 285 287 288 289 290 291 292 292 293
248 250 251 252 253 253 253 252 254 253 253 255 257 258 260 261 262 264 265 266 267 268 269 270 271 272 274 275 277 278 280 281 282 284 285 286 287 287 288 290 290 290 291
250 252 253 254 254 254 255 254 255 255 255 255 256 257 259 261 262 263 264 265 266 267 268 269 271 272 274 275 277 278 279 281 282 283 284 285 285 286 287 287 288 289 290
251 253 254 255 255 255 255 255 255 255 256 257 258 259 260 261 263 264 265 266 267 268 269 270 271 272 274 275 277 278 279 280 281 282 282 283 284 284 285 285 286 287 287
252 254 255 257 257 258 258 259 258 258 258 258 259 260 261 263 264 265 266 267 268 269 270 271 272 274 275 277 278 278 279 279 280 280 280 281 281 282 282 283 284 285 286
255 256 257 259 259 259 259 260 261 261 262 261 262 262 263 264 265 267 267 269 269 270 271 272 274 275 276 276 277 277 277 278 278 278 278 278 279 280 281 282 283 284 284
256 257 259 260 260 260 261 261 261 262 263 263 263 263 264 265 266 267 268 270 271 272 272 273 274 274 274 274 275 275 275 275 275 276 276 277 278 279 280 281 282 282 283
259 260 262 262 262 262 263 264 264 263 263 263 264 264 265 266 267 268 268 269 270 271 272 272 273 273 273 274 274 274 275 275 275 275 276 277 278 278 279 280 280 280 281
261 262 263 263 264 265 265 265 264 264 265 265 265 266 267 268 269 269 269 270 270 271 272 272 273 273 274 274 274 273 274 275 275 275 276 276 276 277 277 277 278 279 280
262 262 263 264 265 265 265 265 265 265 265 266 267 267 268 269 270 270 271 271 272 272 272 272 273 274 274 274 274 275 275 274 274 274 274 274 274 275 275 275 277 278 280
264 263 264 265 266 266 266 265 265 265 266 266 267 268 269 270 271 272 272 272 272 272 273 272 272 273 274 274 274 273 272 272 272 272 272 273 274 274 274 275 277 279 281
265 265 265 265 266 266 266 266 266 266 266 267 268 268 269 270 271 272 272 272 273 273 273 273 272 273 274 274 273 271 271 271 271 271 271 271 271 271 273 276 278 280 281
265 266 266 266 265 265 265 265 265 266 266 267 267 267 268 270 271 272 272 272 273 273 272 272 273 274 274 273 272 271 271 271 271 271 270 270 271 273 275 277 279 281 282
265 266 267 266 266 265 265 265 265 265 266 267 267 268 269 269 271 271 271 271 273 273 272 272 273 274 273 273 272 271 271 271 271 271 271 272 274 275 276 278 280 282 282
265 265 266 266 266 266 265 265 264 265 266 267 268 269 269 269 270 270 270 271 272 273 272 272 273 274 273 273 273 273 273 272 272 272 273 274 275 277 278 279 281 283 283
264 264 265 265 266 265 265 265 266 266 266 267 268 269 269 269 269 269 270 272 271 272 271 272 273 274 274 273 273 273 273 273 273 274 275 276 276 278 279 281 282 284 285
264 265 265 265 265 265 265 265 266 266 267 269 269 268 269 269 269 269 270 270 270 271 272 272 273 273 273 274 274 274 274 275 275 276 277 277 277 279 280 282 283 285 286
264 264 264 264 265 265 265 265 266 266 267 268 268 267 267 268 268 269 270 269 270 271 272 272 273 274 274 274 274 275 276 276 276 276 276 277 279 280 282 283 284 286 288
Height
5768 5774 5780 5786 5791 5796 5801 5805 5809 5812 5815 5818 5820 5823 5825 5827 5828 5830 5832 5833 5834 5835 5836 5837 5837 5837 5837 5837 5836 5835 5835 5834 5832 5831 5830 5829 5827 5825 5822 5820 5816 5813 5810
5761 5767 5773 5779 5784 5789 5793 5797 5801 5804 5808 5810 5813 5815 5817 5819 5821 5823 5824 5825 5826 5827 5828 5829 5829 5829 5829 5829 5828 5827 5827 5826 5824 5823 5821 5821 5821 5817 5815 5812 5809 5805 5802
5753 5760 5766 5771 5776 5781 5785 5789 5793 5796 5799 5802 5805 5807 5809 5811 5813 5814 5816 5817 5818 5819 5819 5820 5821 5821 5821 5821 5820 5819 5818 5817 5816 5813 5812 5811 5810 5809 5807 5804 5801 5797 5794
5746 5752 5758 5763 5768 5773 5777 5781 5784 5788 5791 5794 5796 5799 5801 5803 5805 5806 5807 5808 5809 5810 5810 5811 5812 5812 5812 5811 5811 5810 5809 5808 5806 5805 5803 5801 5799 5797 5796 5794 5791 5788 5784
5740 5745 5750 5756 5760 5765 5769 5772 5775 5779 5782 5785 5787 5790 5792 5794 5795 5797 5798 5799 5800 5801 5801 5802 5802 5802 5802 5802 5801 5800 5799 5798 5796 5795 5793 5791 5789 5787 5785 5784 5781 5778 5774
5733 5738 5743 5748 5753 5757 5760 5763 5766 5770 5772 5775 5777 5780 5782 5784 5786 5787 5788 5789 5790 5791 5791 5791 5792 5792 5792 5791 5791 5790 5789 5788 5786 5785 5783 5781 5780 5778 5775 5774 5771 5768 5765
5726 5731 5735 5739 5744 5748 5751 5754 5757 5760 5763 5765 5768 5770 5772 5774 5775 5776 5778 5778 5779 5780 5781 5781 5781 5781 5781 5780 5780 5779 5778 5777 5776 5774 5773 5771 5769 5767 5765 5763 5761 5758 5755
5720 5724 5727 5731 5735 5738 5741 5743 5747 5750 5752 5755 5757 5759 5761 5763 5764 5765 5766 5767 5768 5769 5770 5770 5770 5770 5769 5769 5769 5768 5767 5766 5765 5763 5762 5760 5759 5756 5754 5752 5750 5748 5745
5712 5716 5719 5722 5725 5728 5731 5734 5736 5739 5741 5744 5746 5748 5750 5751 5753 5754 5755 5756 5757 5757 5758 5758 5758 5758 5758 5758 5757 5757 5756 5755 5754 5752 5751 5750 5748 5746 5744 5741 5739 5737 5735
5705 5708 5711 5714 5716 5719 5721 5723 5726 5728 5731 5733 5735 5737 5739 5740 5741 5742 5743 5744 5745 5745 5746 5746 5747 5747 5746 5746 5746 5745 5744 5743 5742 5741 5740 5739 5737 5735 5733 5730 5728 5726 5724
5698 5700 5703 5705 5707 5709 5711 5713 5716 5718 5720 5722 5724 5725 5727 5728 5729 5731 5731 5732 5733 5733 5734 5734 5735 5735 5735 5734 5734 5733 5732 5732 5731 5730 5728 5727 5725 5724 5721 5719 5717 5715 5713
5691 5693 5695 5697 5699 5700 5702 5704 5706 5707 5709 5711 5712 5714 5715 5716 5718 5719 5719 5720 5721 5721 5722 5722 5722 5722 5722 5722 5721 5721 5720 5719 5719 5718 5716 5715 5714 5712 5710 5708 5706 5704 5702
5685 5686 5688 5689 5691 5692 5694 5695 5696 5698 5699 5700 5702 5703 5704 5705 5706 5707 5707 5708 5709 5709 5709 5710 5710 5710 5710 5709 5709 5708 5708 5707 5706 5705 5704 5703 5702 5700 5698 5697 5695 5693 5691
5678 5679 5681 5682 5683 5685 5686 5687 5688 5689 5690 5691 5692 5692 5693 5694 5695 5695 5696 5696 5697 5697 5697 5697 5697 5697 5697 5696 5696 5695 5695 5694 5693 5693 5692 5691 5690 5688 5687 5686 5684 5683 5681
5671 5672 5673 5674 5675 5676 5677 5678 5679 5680 5680 5681 5682 5682 5683 5683 5684 5684 5684 5685 5685 5685 5685 5685 5685 5685 5684 5684 5683 5683 5682 5682 5681 5680 5680 5679 5678 5677 5676 5675 5674 5672 5671
5663 5664 5665 5666 5667 5668 5669 5669 5670 5670 5671 5671 5672 5672 5672 5673 5673 5673 5673 5674 5674 5673 5673 5673 5673 5673 5672 5672 5671 5671 5670 5670 5669 5669 5668 5668 5667 5666 5665 5665 5664 5663 5662
5655 5656 5656 5657 5658 5659 5659 5660 5660 5661 5661 5661 5662 5662 5662 5662 5662 5662 5662 5662 5662 5662 5662 5662 5662 5661 5661 5660 5660 5659 5659 5658 5658 5658 5657 5657 5656 5656 5655 5655 5654 5654 5653
5646 5647 5648 5648 5649 5649 5650 5650 5651 5651 5651 5651 5652 5652 5652 5652 5652 5652 5651 5651 5651 5651 5651 5651 5650 5650 5650 5649 5649 5648 5648 5648 5647 5647 5647 5647 5646 5646 5646 5646 5645 5644 5644
5637 5638 5638 5639 5639 5640 5640 5640 5641 5641 5641 5641 5642 5642 5642 5642 5641 5641 5641 5641 5640 5640 5640 5640 5640 5639 5639 5638 5638 5638 5638 5637 5637 5637 5637 5637 5637 5637 5637 5637 5636 5636 5635
5628 5629 5629 5629 5630 5630 5630 5631 5631 5631 5631 5631 5632 5632 5632 5631 5631 5631 5631 5630 5630 5630 5630 5629 5629 5629 5629 5628 5628 5628 5628 5628 5628 5628 5628 5628 5628 5628 5628 5628 5627 5627 5626
5619 5619 5620 5620 5620 5620 5621 5621 5621 5622 5622 5622 5622 5622 5622 5622 5622 5621 5621 5621 5621 5620 5620 5620 5620 5620 5619 5619 5619 5619 5619 5619 5619 5619 5619 5620 5620 5619 5619 5619 5618 5618 5617
5610 5610 5611 5611 5611 5611 5611 5611 5612 5612 5612 5612 5612 5612 5612 5612 5612 5612 5612 5612 5612 5611 5611 5611 5611 5611 5611 5611 5610 5611 5611 5611 5611 5611 5611 5611 5611 5611 5611 5610 5609 5608 5607
5601 5602 5602 5602 5602 5602 5602 5603 5603 5603 5603 5603 5603 5603 5603 5603 5603 5603 5603 5603 5603 5603 5603 5603 5603 5603 5603 5602 5602 5602 5602 5602 5603 5603 5603 5603 5602 5602 5601 5601 5600 5599 5597
5593 5593 5593 5593 5593 5593 5594 5594 5594 5594 5594 5594 5594 5594 5594 5594 5594 5595 5595 5595 5595 5595 5595 5595 5595 5595 5594 5594 5594 5594 5594 5594 5594 5594 5594 5594 5593 5593 5592 5591 5590 5589 5587
5583 5584 5584 5584 5584 5584 5585 5585 5585 5585 5585 5585 5585 5585 5585 5586 5586 5586 5586 5586 5587 5586 5587 5587 5587 5587 5586 5586 5586 5586 5586 5586 5586 5586 5585 5585 5584 5583 5582 5581 5580 5578 5577
5574 5574 5574 5575 5575 5575 5575 5575 5576 5576 5576 5576 5576 5577 5577 5577 5577 5577 5578 5578 5578 5578 5578 5578 5578 5578 5578 5578 5578 5577 5577 5577 5577 5576 5576 5575 5574 5573 5572 5571 5569 5568 5566